FW1564 Weather Reports


Display with metric or nautical units.
time (UTC)temp
F
wind
direction
speed
MPH
gust
MPH
rain 1hr
in
rain 24hr
in
rain mn
in
humidity
%
barometer
mb
20260906001810 66 332 3.0 6.0 0.00 0.00 0.00 85 1022.3
20260906000810 66 323 3.0 6.0 0.00 0.00 0.00 84 1022.4
20260905235810 66 340 4.0 6.0 0.00 0.00 0.00 85 1022.5
20260905234810 66 346 3.0 4.0 0.00 0.00 0.00 86 1022.5
20260905234252 66 28 2.0 4.0 0.00 0.00 0.00 86 1022.4
20260905232810 66 335 3.0 4.0 0.00 0.00 0.00 85 1022.5
20260905232253 66 355 3.0 6.0 0.00 0.00 0.00 84 1022.5
20260905230810 66 336 4.0 6.0 0.00 0.00 0.00 84 1022.6
20260905230243 66 342 2.0 6.0 0.00 0.00 0.00 85 1022.5
20260905224810 66 335 2.0 4.0 0.00 0.00 0.00 84 1022.5
20260905223810 67 342 2.0 4.0 0.00 0.00 0.00 84 1022.6
20260905222810 66 349 2.0 4.0 0.00 0.00 0.00 83 1022.6
20260905222732 67 347 3.0 4.0 0.00 0.00 0.00 84 1022.3
20260905220810 67 359 3.0 6.0 0.00 0.00 0.00 84 1022.2
20260905215811 67 340 2.0 3.0 0.00 0.00 0.00 85 1022.5
20260905214810 67 351 2.0 2.0 0.00 0.00 0.00 83 1022.3
20260905213810 67 347 1.0 3.0 0.00 0.00 0.00 82 1022.3
20260905212810 67 346 2.0 3.0 0.00 0.00 0.00 81 1022.3
20260905211810 67 335 1.0 3.0 0.00 0.00 0.00 82 1022.2
20260905210810 67 349 2.0 3.0 0.00 0.00 0.00 81 1021.9
20260905210252 67 344 2.0 3.0 0.00 0.00 0.00 83 1021.5
20260905204810 68 0 0.0 2.0 0.00 0.00 0.00 86 1021.5
20260905204248 69 93 1.0 1.0 0.00 0.00 0.00 88 1021.3
20260905202810 69 99 0.0 2.0 0.00 0.00 0.00 88 1021.3
20260905202249 69 115 0.0 1.0 0.00 0.00 0.00 88 1021.2
20260905200810 69 111 0.0 2.0 0.00 0.00 0.00 88 1020.8
20260905195811 69 133 2.0 3.0 0.00 0.00 0.00 89 1020.8
20260905194811 69 154 1.0 3.0 0.00 0.00 0.00 89 1020.8
20260905193810 69 155 2.0 3.0 0.00 0.00 0.00 88 1020.6
20260905192810 69 149 1.0 4.0 0.00 0.00 0.00 88 1020.4
20260905192246 69 134 1.0 3.0 0.00 0.00 0.00 88 1020.6
20260905190810 69 160 2.0 4.0 0.00 0.00 0.00 88 1020.6
20260905185811 69 128 1.0 4.0 0.00 0.00 0.00 88 1020.5
20260905184810 69 111 2.0 4.0 0.00 0.00 0.00 88 1020.4
20260905183810 69 160 3.0 4.0 0.00 0.00 0.00 88 1020.4
20260905182811 69 135 2.0 3.0 0.00 0.00 0.00 88 1020.7
20260905181810 69 160 2.0 4.0 0.00 0.00 0.00 87 1020.7
20260905180810 69 147 1.0 3.0 0.00 0.00 0.00 87 1020.8
20260905175810 69 198 2.0 4.0 0.00 0.00 0.00 87 1020.7
20260905175720 69 99 1.0 4.0 0.00 0.00 0.00 87 1020.7
20260905173810 69 102 2.0 4.0 0.00 0.00 0.00 87 1020.7
20260905172811 70 121 2.0 6.0 0.00 0.00 0.00 87 1020.7
20260905171810 70 43 0.0 6.0 0.00 0.00 0.00 87 1020.7
20260905170810 70 140 3.0 6.0 0.00 0.00 0.00 85 1020.6
20260905170247 70 112 4.0 6.0 0.00 0.00 0.00 85 1020.5
20260905165244 70 82 0.0 4.0 0.00 0.00 0.00 84 1020.5
20260905163810 70 326 1.0 4.0 0.00 0.00 0.00 84 1020.5
20260905162810 70 153 1.0 7.0 0.00 0.00 0.00 85 1020.6
20260905161810 71 107 5.0 6.0 0.00 0.00 0.00 84 1020.3
20260905160810 71 101 3.0 7.0 0.00 0.00 0.00 83 1020.3
20260905160300 71 112 2.0 7.0 0.00 0.00 0.00 83 1020.5
20260905154810 71 82 2.0 6.0 0.00 0.00 0.00 83 1020.5
20260905153810 71 167 4.0 7.0 0.00 0.00 0.00 82 1020.6
20260905152810 71 136 2.0 7.0 0.00 0.00 0.00 82 1021.0
20260905151810 71 129 3.0 8.0 0.00 0.00 0.00 82 1020.7
20260905150810 72 147 4.0 9.0 0.00 0.00 0.00 81 1020.6
20260905145810 73 164 3.0 9.0 0.00 0.00 0.00 80 1020.7
20260905144811 73 213 2.0 8.0 0.00 0.00 0.00 79 1020.8
20260905143810 73 94 3.0 8.0 0.00 0.00 0.00 78 1021.0
20260905142758 73 98 5.0 8.0 0.00 0.00 0.00 77 1020.8
20260905141758 74 162 3.0 8.0 0.00 0.00 0.00 77 1020.8
20260905140757 74 138 6.0 9.0 0.00 0.00 0.00 75 1021.0
20260905135758 74 103 3.0 7.0 0.00 0.00 0.00 77 1021.0
20260905135725 74 161 4.0 11.0 0.00 0.00 0.00 77 1021.0
20260905133758 74 170 5.0 9.0 0.00 0.00 0.00 76 1021.0
20260905132758 73 170 4.0 8.0 0.00 0.00 0.00 78 1020.9
20260905131758 73 186 4.0 10.0 0.00 0.00 0.00 79 1021.2
20260905130758 72 101 5.0 7.0 0.00 0.00 0.00 80 1021.1
20260905125758 73 123 3.0 9.0 0.00 0.00 0.00 80 1021.3
20260905124757 72 113 4.0 8.0 0.00 0.00 0.00 80 1021.2
20260905123758 72 61 4.0 10.0 0.00 0.00 0.00 80 1021.2
20260905122758 73 75 2.0 8.0 0.00 0.00 0.00 79 1021.2
20260905121759 73 226 2.0 9.0 0.00 0.00 0.00 79 1021.5
20260905120758 72 161 6.0 10.0 0.00 0.00 0.00 80 1021.5
20260905115758 73 99 5.0 9.0 0.00 0.00 0.00 78 1021.3
20260905115238 74 140 5.0 10.0 0.00 0.00 0.00 77 1021.2
20260905113758 73 123 5.0 10.0 0.00 0.00 0.00 77 1021.1
20260905112758 73 146 6.0 9.0 0.00 0.00 0.00 78 1021.5
20260905111758 72 153 3.0 7.0 0.00 0.00 0.00 80 1021.5
20260905110758 71 189 3.0 7.0 0.00 0.00 0.00 79 1021.7
20260905110235 71 141 4.0 9.0 0.00 0.00 0.00 79 1021.6
20260905105231 72 127 6.0 8.0 0.00 0.00 0.00 78 1021.6
20260905103758 72 129 2.0 9.0 0.00 0.00 0.00 77 1021.6
20260905102758 74 172 3.0 7.0 0.00 0.00 0.00 73 1021.2
20260905101758 73 171 4.0 9.0 0.00 0.00 0.00 72 1021.2
20260905100759 73 344 4.0 7.0 0.00 0.00 0.00 71 1021.0
20260905095758 73 54 2.0 8.0 0.00 0.00 0.00 72 1021.1
20260905095235 71 132 1.0 6.0 0.00 0.00 0.00 74 1020.8
20260905093758 73 131 5.0 6.0 0.00 0.00 0.00 72 1020.6
20260905092758 72 38 2.0 4.0 0.00 0.00 0.00 74 1020.8
20260905091759 71 198 1.0 4.0 0.00 0.00 0.00 75 1020.8
20260905091239 71 157 1.0 4.0 0.00 0.00 0.00 75 1020.7
20260905085803 69 21 0.0 4.0 0.00 0.00 0.00 78 1021.0
20260905085726 72 50 2.0 3.0 0.00 0.00 0.00 75 1020.9
20260905083758 71 313 0.0 2.0 0.00 0.00 0.00 75 1020.9
20260905082758 67 14 2.0 2.0 0.00 0.00 0.00 79 1021.0
20260905081758 66 8 1.0 3.0 0.00 0.00 0.00 81 1020.7
20260905080758 65 342 2.0 3.0 0.00 0.00 0.00 77 1020.8
20260905075758 66 343 2.0 6.0 0.00 0.00 0.00 79 1020.6
20260905074758 65 343 3.0 6.0 0.00 0.00 0.00 81 1020.4
20260905073758 65 2 4.0 6.0 0.00 0.00 0.00 83 1020.5
20260905072758 65 342 4.0 6.0 0.00 0.00 0.00 85 1020.2
20260905071758 65 342 3.0 6.0 0.00 0.00 0.00 85 1020.1
20260905070759 65 350 3.0 6.0 0.00 0.00 0.00 85 1020.2
20260905065758 65 337 3.0 4.0 0.00 0.00 0.00 87 1020.1
20260905064759 65 342 3.0 3.0 0.00 0.00 0.00 87 1020.2
20260905063758 64 8 1.0 3.0 0.00 0.00 0.00 87 1019.9
20260905063720 64 356 2.0 4.0 0.00 0.00 0.00 87 1019.9
20260905061758 63 355 2.0 4.0 0.00 0.00 0.00 86 1019.7
20260905060758 63 352 2.0 4.0 0.00 0.00 0.00 85 1019.7
20260905055758 64 342 3.0 6.0 0.00 0.00 0.00 85 1019.2
20260905055246 64 339 3.0 6.0 0.00 0.00 0.00 85 1019.4
20260905053758 64 337 3.0 4.0 0.00 0.00 0.00 86 1019.2
20260905052758 65 343 2.0 4.0 0.00 0.00 0.00 87 1019.4
20260905051757 65 341 3.0 3.0 0.00 0.00 0.00 86 1019.5
20260905050758 64 349 2.0 4.0 0.00 0.00 0.00 85 1019.6
20260905045758 64 336 2.0 3.0 0.00 0.00 0.00 85 1019.4
20260905045248 64 345 2.0 3.0 0.00 0.00 0.00 82 1019.4
20260905043758 63 342 2.0 4.0 0.00 0.00 0.00 83 1019.4
20260905043729 62 355 2.0 4.0 0.00 0.00 0.00 82 1019.4
20260905041758 62 343 3.0 4.0 0.00 0.00 0.00 79 1019.4
20260905040758 64 340 2.0 6.0 0.00 0.00 0.00 78 1019.4
20260905035758 64 339 5.0 6.0 0.00 0.00 0.00 83 1019.4
20260905034758 65 328 3.0 4.0 0.00 0.00 0.00 86 1019.4
20260905033758 65 345 3.0 6.0 0.00 0.00 0.00 85 1019.5
20260905033239 65 330 3.0 7.0 0.00 0.00 0.00 84 1019.7
20260905032239 65 341 4.0 7.0 0.00 0.00 0.00 84 1019.9
20260905030758 65 330 3.0 6.0 0.00 0.00 0.00 85 1020.0
20260905025758 65 327 3.0 6.0 0.00 0.00 0.00 85 1019.9
20260905024758 65 346 3.0 4.0 0.00 0.00 0.00 84 1020.2
20260905023759 65 334 3.0 7.0 0.00 0.00 0.00 83 1020.0
20260905022758 66 336 5.0 7.0 0.00 0.00 0.00 84 1020.1
20260905021758 66 345 1.0 6.0 0.00 0.00 0.00 84 1020.3
20260905020759 66 326 4.0 6.0 0.00 0.00 0.00 84 1020.4
20260905020245 66 340 5.0 7.0 0.00 0.00 0.00 83 1020.4
20260905014758 65 8 4.0 6.0 0.00 0.00 0.00 82 1020.7
20260905013758 65 337 4.0 6.0 0.00 0.00 0.00 82 1020.7
20260905013247 66 343 4.0 6.0 0.00 0.00 0.00 82 1020.7
20260905011758 66 333 4.0 6.0 0.00 0.00 0.00 82 1020.9
20260905010758 67 342 3.0 4.0 0.00 0.00 0.00 83 1021.1
20260905005758 67 342 2.0 2.0 0.00 0.00 0.00 83 1021.0
20260905005238 67 352 1.0 2.0 0.00 0.00 0.00 84 1021.5
20260905003758 67 15 0.0 2.0 0.00 0.00 0.00 85 1021.2
20260905002758 67 351 1.0 2.0 0.00 0.00 0.00 84 1021.3